Location: Dornbirn
(47.4124°N, 9.7438°E)
Time: 23:30:09
(UTC+02:00)

ISS - Visible Passes

Search period start: 23 September 2018 00:00
Search period end: 03 October 2018 00:00
Orbit: 403 x 408 km, 51.6° (Epoch: 23 September)

Date Brightness Start Highest point End Pass type
(mag) Time Alt. Az. Time Alt. Az. Time Alt. Az.
23 Sep -3.4 21:09:41 10° SW 21:12:21 51° SSW 21:12:21 51° SSW visible
24 Sep -3.2 20:18:02 10° SW 20:21:08 39° SE 20:22:54 21° E visible
24 Sep -1.3 21:54:22 10° W 21:55:36 20° W 21:55:36 20° W visible
25 Sep -3.7 21:02:21 10° WSW 21:05:38 72° NNW 21:05:59 63° NNE visible
26 Sep -3.9 20:10:26 10° WSW 20:13:43 77° SSE 20:16:15 16° ENE visible
26 Sep -1.5 21:47:16 10° W 21:48:56 24° WNW 21:48:56 24° WNW visible
27 Sep -3.0 20:55:10 10° W 20:58:22 47° NNW 20:59:06 39° NNE visible
28 Sep -3.5 20:03:05 10° WSW 20:06:22 63° NNW 20:09:12 13° ENE visible
28 Sep -1.5 21:40:06 10° WNW 21:41:52 25° NW 21:41:52 25° NW visible
29 Sep -2.7 20:48:00 10° WNW 20:51:08 39° N 20:51:54 33° NNE visible
30 Sep -2.9 19:55:51 10° W 19:59:02 44° NNW 20:01:54 12° ENE visible
30 Sep -1.6 21:32:47 10° WNW 21:34:34 26° NW 21:34:34 26° NW visible
01 Oct -2.8 20:40:44 10° WNW 20:43:51 38° N 20:44:32 33° NE visible
02 Oct -2.7 19:48:36 10° WNW 19:51:44 38° N 19:54:30 12° ENE visible
02 Oct -1.8 21:25:21 10° WNW 21:27:09 28° NW 21:27:09 28° NW visible
